Sacramento, CA

9:07 AM PDT on August 25, 2016 (GMT -0700)
Sacramento Executive

Weather History for KSAC - February, 2014

Change the Weather History Date:

Wednesday, February 5, 2014

  Actual Average Record
Temperature  
Mean Temperature 43 °F -  
Max Temperature 54 °F 58 °F 76 °F (2011)
Min Temperature 31 °F 40 °F 25 °F (1989)
Degree Days  
Heating Degree Days 22    
Cooling Degree Days 0    
Moisture  
Dew Point 36 °F    
Average Humidity 75    
Maximum Humidity 100    
Minimum Humidity 50    
Precipitation  
Precipitation 0.00 in 0.13 in 1.12 in (1969)
Month to date precipitation 0.04 0.64  
Year to date precipitation 0.19 4.28  
Since 1 July precipitation 2.09 10.90  
Sea Level Pressure  
Sea Level Pressure 30.14 in    
Wind  
Wind Speed 3 mph (South)    
Max Wind Speed 10 mph    
Max Gust Speed 13 mph    
Visibility 9 miles    
Events Rain    
T = Trace of Precipitation, MM = Missing Value Source: NWS Daily Summary

Daily Weather History Graph

Daily Weather History Graph

Search for Another Location

Airport or City:

Trip Planner

Search our weather history database for the weather conditions in past years. The results will help you decide how hot, cold, wet, or windy it might be!

Date:

Astronomy

Feb. 05, 2014 Rise Set
Actual Time 7:07 AM PST 5:32 PM PST
Civil Twilight 6:39 AM PST 6:00 PM PST
Nautical Twilight 6:08 AM PST 6:32 PM PST
Astronomical Twilight 5:37 AM PST 7:03 PM PST
Moon 10:30 AM PST (2/5) No Moon Set
Length of Visible Light 11h 20m
Length of Day
10h 25m
Waxing Crescent, 40% of the Moon is Illuminated
Feb 5
Waxing Crescent
Feb 6
First Quarter
Feb 14
Full
Feb 22
Last Quarter
Mar 1
New

Hourly Weather History & Observations

Time (PST) Temp. Windchill Dew Point Humidity Pressure Visibility Wind Dir Wind Speed Gust Speed Precip Events Conditions
12:53 AM 36.0 °F - 35.1 °F 97% 30.15 in 9.0 mi Calm Calm - N/A   Clear
1:53 AM 37.0 °F 34.5 °F 35.1 °F 93% 30.14 in 10.0 mi ESE 3.5 mph - N/A   Clear
2:53 AM 35.1 °F - 33.1 °F 92% 30.15 in 7.0 mi Calm Calm - N/A   Clear
3:53 AM 35.1 °F 31.0 °F 33.1 °F 92% 30.13 in 8.0 mi ESE 4.6 mph - N/A   Clear
4:53 AM 33.1 °F 30.0 °F 30.9 °F 92% 30.15 in 7.0 mi SE 3.5 mph - N/A   Clear
5:53 AM 33.1 °F - 30.9 °F 92% 30.17 in 6.0 mi Calm Calm - N/A   Clear
6:53 AM 33.1 °F - 32.0 °F 96% 30.19 in 5.0 mi Calm Calm - N/A   Clear
7:19 AM 33.8 °F 29.6 °F 32.0 °F 93% 30.20 in 2.5 mi SE 4.6 mph - N/A   Clear
7:28 AM 33.8 °F - 32.0 °F 93% 30.20 in 6.0 mi Calm Calm - N/A   Clear
7:53 AM 35.1 °F 30.1 °F 34.0 °F 96% 30.19 in 7.0 mi SE 5.8 mph - N/A   Clear
8:53 AM 43.0 °F 39.5 °F 37.0 °F 80% 30.19 in 10.0 mi SE 5.8 mph - N/A   Clear
9:53 AM 46.0 °F 43.9 °F 37.9 °F 73% 30.21 in 10.0 mi SSW 4.6 mph - N/A   Clear
10:53 AM 48.9 °F - 39.9 °F 71% 30.19 in 10.0 mi South 6.9 mph - N/A   Clear
11:53 AM 51.1 °F - 37.9 °F 61% 30.18 in 10.0 mi SW 6.9 mph - N/A   Clear
12:53 PM 53.1 °F - 39.0 °F 59% 30.15 in 10.0 mi SSW 6.9 mph - N/A   Clear
1:53 PM 54.0 °F - 37.9 °F 55% 30.12 in 10.0 mi SW 8.1 mph - N/A   Clear
2:53 PM 54.0 °F - 36.0 °F 51% 30.12 in 10.0 mi SW 8.1 mph - N/A   Clear
3:53 PM 54.0 °F - 35.1 °F 49% 30.10 in 10.0 mi SSW 4.6 mph - N/A   Clear
4:53 PM 53.1 °F - 36.0 °F 52% 30.10 in 10.0 mi SSW 4.6 mph - N/A   Overcast
5:53 PM 52.0 °F - 36.0 °F 54% 30.10 in 10.0 mi SSW 4.6 mph - N/A   Overcast
6:53 PM 51.1 °F - 37.9 °F 61% 30.10 in 10.0 mi SSW 4.6 mph - N/A   Overcast
7:53 PM 50.0 °F - 37.9 °F 63% 30.10 in 10.0 mi SSW 5.8 mph - N/A   Overcast
8:53 PM 48.9 °F - 37.9 °F 66% 30.10 in 10.0 mi South 5.8 mph - N/A   Overcast
9:53 PM 46.9 °F - 39.9 °F 77% 30.10 in 10.0 mi SSW 6.9 mph - 0.00 in Rain Light Rain
10:53 PM 45.0 °F 43.5 °F 43.0 °F 93% 30.10 in 8.0 mi South 3.5 mph - 0.03 in Rain Light Rain
11:53 PM 44.1 °F - 43.0 °F 96% 30.09 in 8.0 mi Calm Calm - 0.05 in Rain Light Rain